Temp
30 31 30 31 34 35 36 36 37 43 44 45 46 46 47 47 47 48 48 48 49 49 50 51 52 52 52
29 29 29 31 31 31 35 38 37 40 43 44 45 45 45 45 46 46 47 47 47 48 48 49 49 50 50
29 29 29 30 31 32 33 33 36 40 42 42 43 43 44 45 45 45 44 45 45 45 46 46 47 47 49
28 26 26 31 31 29 29 32 32 36 38 40 41 42 43 42 42 42 42 42 43 44 45 45 45 46 47
27 25 27 29 28 29 28 30 31 32 32 31 30 33 34 37 38 39 40 41 43 44 44 44 45 45 46
29 28 28 28 29 28 27 26 25 33 28 30 33 31 32 33 38 40 41 41 42 42 43 43 44 44 45
29 28 27 29 28 26 27 27 27 30 29 27 30 29 32 34 38 39 40 40 41 42 42 43 43 44 44
30 30 31 32 32 32 30 28 29 30 30 23 29 28 31 31 36 38 39 40 40 41 42 42 42 42 43
39 39 39 39 38 31 25 24 22 25 29 26 25 25 27 28 31 36 38 39 39 39 40 40 41 42 41
29 30 32 30 35 30 24 22 22 21 25 22 24 24 21 23 24 29 30 34 36 38 39 39 40 37 36
27 27 28 28 28 28 27 24 22 21 28 27 23 23 23 22 24 28 28 29 29 31 35 37 38 38 34
25 24 24 24 25 26 27 27 27 25 26 26 22 21 21 21 21 26 27 28 28 28 29 34 37 38 40
22 23 23 24 24 24 25 26 24 25 26 26 24 24 23 21 21 23 24 27 29 28 28 27 30 32 32
22 23 24 23 22 23 22 23 22 22 26 26 24 24 22 22 23 22 26 24 28 29 28 29 32 34 34
22 21 22 22 22 23 22 22 20 20 21 24 25 25 24 23 22 24 25 26 27 28 28 29 31 33 34
21 21 20 20 20 22 24 21 20 20 20 22 22 22 23 26 30 23 25 26 28 29 30 28 29 33 34
20 20 20 21 22 20 21 21 21 21 21 22 22 22 20 18 27 36 27 28 29 29 29 29 28 31 34
MSLP
1021.78 1021.35 1021.04 1020.59 1020.06 1019.49 1019.03 1018.57 1018.01 1017.29 1016.68 1016.00 1015.35 1014.72 1014.23 1013.61 1013.18 1012.74 1012.26 1011.85 1011.42 1010.98 1010.44 1010.04 1009.50 1009.11 1008.93
1021.44 1021.09 1020.80 1020.21 1019.66 1019.13 1018.52 1017.87 1017.35 1016.73 1016.05 1015.23 1014.59 1014.11 1013.61 1013.10 1012.48 1011.94 1011.49 1011.01 1010.66 1010.19 1009.77 1009.30 1008.93 1008.59 1008.23
1020.87 1020.54 1020.04 1019.52 1018.92 1018.32 1017.87 1017.19 1016.69 1016.05 1015.36 1014.73 1014.08 1013.70 1013.08 1012.38 1011.87 1011.39 1010.88 1010.37 1009.98 1009.54 1009.05 1008.69 1008.34 1008.02 1007.57
1020.50 1020.06 1019.65 1018.87 1018.34 1017.81 1017.02 1016.64 1015.91 1015.34 1014.67 1014.09 1013.42 1012.92 1012.36 1011.90 1011.29 1010.76 1010.26 1009.78 1009.27 1008.66 1008.06 1007.68 1007.44 1007.01 1006.62
1019.92 1019.47 1018.95 1018.23 1017.87 1017.34 1016.68 1015.85 1015.33 1014.74 1013.79 1013.46 1013.00 1012.43 1011.59 1011.05 1010.52 1009.95 1009.41 1008.76 1008.07 1007.51 1006.98 1006.65 1006.24 1005.99 1005.68
1019.27 1018.82 1018.19 1017.77 1017.23 1016.81 1016.15 1015.54 1014.27 1013.48 1013.27 1012.78 1012.19 1011.34 1010.65 1010.14 1009.55 1008.75 1008.09 1007.59 1007.06 1006.60 1006.03 1005.62 1005.22 1004.90 1004.50
1018.47 1018.19 1017.46 1017.05 1016.66 1016.04 1015.57 1014.94 1014.24 1013.21 1012.98 1011.87 1011.42 1010.42 1009.71 1009.02 1008.43 1007.79 1007.13 1006.58 1006.03 1005.44 1004.95 1004.52 1004.06 1003.78 1003.44
1017.80 1017.22 1016.71 1016.18 1015.83 1015.21 1014.74 1014.22 1013.64 1012.97 1012.47 1011.18 1010.53 1009.51 1008.80 1008.25 1007.49 1006.75 1006.16 1005.67 1005.11 1004.56 1004.12 1003.65 1003.23 1002.82 1002.45
1016.73 1016.33 1015.89 1015.36 1014.91 1014.59 1014.46 1014.06 1012.97 1012.29 1011.60 1010.95 1009.74 1008.84 1008.06 1006.99 1006.26 1005.65 1005.21 1004.75 1004.39 1003.83 1003.35 1002.81 1002.23 1001.73 1001.24
1016.72 1016.17 1015.64 1015.24 1014.51 1014.35 1014.23 1013.78 1012.99 1011.61 1010.66 1010.60 1009.53 1009.36 1007.00 1005.76 1005.35 1005.04 1004.57 1004.02 1003.48 1002.83 1002.23 1001.72 1001.25 1000.88 1000.44
1016.24 1015.70 1015.18 1014.59 1014.07 1013.74 1013.58 1013.33 1012.48 1011.56 1010.32 1010.25 1009.05 1008.80 1008.34 1006.22 1004.90 1004.26 1003.82 1002.81 1002.36 1001.71 1001.27 1000.72 1000.25 999.99 999.59
1016.06 1015.42 1014.86 1014.20 1013.55 1013.20 1012.74 1012.22 1011.71 1010.81 1009.74 1009.84 1008.87 1008.19 1007.23 1006.00 1004.68 1003.31 1002.56 1002.03 1001.51 1000.63 1000.18 999.76 999.23 998.72 998.29
1015.94 1015.19 1014.57 1013.86 1013.15 1012.49 1011.80 1011.15 1010.57 1009.64 1008.80 1008.41 1008.04 1007.16 1006.61 1005.50 1004.25 1002.91 1001.80 1000.60 1000.25 999.64 999.16 998.92 998.29 997.82 997.16
1015.64 1014.83 1014.02 1013.35 1012.60 1011.91 1011.21 1010.46 1009.69 1008.46 1007.52 1007.13 1006.71 1006.26 1005.39 1004.56 1003.66 1001.98 1001.12 1000.39 999.19 998.60 998.08 997.47 996.91 996.39 995.92
1015.27 1014.47 1013.68 1012.99 1012.08 1011.27 1010.61 1009.72 1009.08 1007.83 1006.74 1005.78 1005.39 1004.91 1004.23 1003.56 1002.45 1000.84 999.86 998.88 998.06 997.46 997.07 995.98 995.23 994.76 994.28
1014.88 1014.20 1013.38 1012.54 1011.55 1010.55 1009.88 1009.24 1008.31 1007.20 1006.25 1005.11 1004.34 1003.49 1002.49 1001.36 1000.87 999.49 998.24 997.60 996.62 996.05 995.57 994.73 993.43 993.05 992.64
1014.57 1013.71 1012.83 1011.92 1011.07 1010.13 1009.20 1008.38 1007.34 1006.38 1005.25 1004.30 1003.54 1002.77 1001.48 999.96 998.46 998.12 997.33 996.18 995.33 994.56 994.06 993.44 992.29 991.19 990.82
Wind_Speed
3 4 5 9 9 8 10 10 10 23 25 25 25 25 26 26 26 27 26 26 28 28 29 29 29 30 29
4 4 6 8 8 10 9 10 11 19 25 25 27 27 26 25 25 25 27 28 27 28 29 29 29 28 28
8 3 5 4 8 8 8 9 9 19 23 25 26 25 25 25 27 27 27 27 27 28 28 27 27 28 28
7 6 4 6 6 8 10 8 10 10 16 21 23 22 25 28 28 27 27 26 26 27 27 27 28 28 28
7 4 7 9 10 8 10 11 11 10 10 6 4 9 12 19 21 26 26 26 27 28 29 28 27 27 28
7 9 10 9 9 9 10 11 10 7 3 11 10 11 11 9 21 27 28 28 27 27 27 27 26 26 25
11 10 11 11 11 12 11 9 10 12 10 12 11 12 10 11 24 28 29 28 26 25 25 24 24 25 26
8 11 11 11 11 10 11 10 10 10 10 12 10 13 11 9 26 29 26 24 23 24 26 27 26 25 26
20 21 22 24 21 9 8 9 11 10 10 10 5 10 11 12 12 22 21 22 26 27 26 25 26 26 19
6 11 13 12 20 8 6 9 10 9 3 3 8 6 8 3 3 6 10 20 25 26 27 26 25 11 11
8 7 9 8 7 6 7 7 10 11 13 10 6 8 8 10 5 9 10 13 10 13 22 25 24 18 10
7 8 8 9 8 8 11 11 10 16 15 12 8 9 11 13 14 9 10 10 10 11 9 16 22 22 24
8 9 8 8 11 11 11 12 11 14 13 12 11 12 10 12 13 14 15 10 12 11 9 7 9 9 11
8 9 9 9 10 9 10 10 10 10 13 11 11 11 12 12 12 15 13 12 11 12 11 10 11 10 11
8 9 10 9 10 9 9 10 10 11 12 11 9 11 12 15 14 14 14 14 12 12 12 13 12 11 12
9 8 9 10 11 10 9 9 11 11 12 11 10 11 10 11 22 14 14 12 12 12 12 12 13 11 11
9 9 9 9 14 11 10 9 11 11 11 11 10 9 12 14 9 19 12 13 13 13 11 12 14 13 12
Wind_Direction
249 277 287 284 288 288 290 289 289 297 301 303 300 300 300 297 298 293 290 292 286 287 286 286 285 286 285
266 263 245 266 268 275 279 281 286 290 298 299 301 300 299 297 293 295 293 292 292 292 289 288 286 286 283
287 257 265 273 284 270 276 280 276 284 294 294 295 297 292 296 299 296 294 292 291 289 285 284 281 280 278
278 277 258 273 283 296 297 293 293 289 286 284 287 289 293 296 294 294 292 289 287 283 280 280 279 278 275
275 270 286 299 302 301 291 296 293 288 277 276 269 279 283 286 286 288 289 284 284 284 283 281 279 279 277
283 288 291 293 295 291 292 297 301 282 321 299 291 284 282 277 281 286 290 292 289 285 283 281 279 275 271
294 282 289 288 288 286 279 275 288 293 296 291 291 285 281 279 286 288 291 292 290 287 284 281 282 285 283
269 277 269 273 271 285 295 290 283 283 286 282 287 282 286 279 282 287 286 287 289 290 293 288 283 280 278
297 301 303 301 299 303 289 296 291 289 287 287 275 289 287 277 269 272 277 285 292 291 290 285 283 281 278
294 294 291 281 294 290 277 278 288 296 253 272 298 301 300 227 260 266 278 276 284 285 286 286 283 278 272
302 296 295 291 288 281 267 262 280 268 277 291 288 283 268 294 272 284 281 283 278 278 281 282 282 275 265
303 299 298 298 297 294 286 276 264 266 280 274 271 272 277 283 289 289 282 282 277 273 271 274 278 279 277
295 293 292 291 293 289 282 280 270 270 271 269 260 272 268 274 280 283 288 289 280 272 268 257 266 268 270
294 293 297 299 294 292 292 295 288 286 282 270 258 260 269 265 270 276 277 277 286 281 276 272 269 257 258
296 300 298 297 293 296 289 290 282 295 296 295 275 255 254 263 272 270 273 275 271 272 272 270 267 263 260
299 295 295 296 296 294 292 291 289 290 290 290 292 293 279 255 237 265 269 266 274 272 268 273 274 268 258
294 293 292 292 306 297 294 290 289 286 283 284 282 279 293 290 278 257 266 280 284 282 274 263 268 271 266